Weather History for South Lake Tahoe, CA

Change the Weather History Date:

Monday, January 6, 2014

  Actual Average Record
Temperature  
Mean Temperature -1 °C -1 °C  
Max Temperature 7 °C 6 °C 13 °C (2006)
Min Temperature -9 °C -9 °C -22 °C (1989)
Degree Days  
Heating Degree Days 34 36  
Month to date heating degree days 181 216  
Since 1 July heating degree days 3139 3399  
Cooling Degree Days 0 0  
Month to date cooling degree days 0 0  
Year to date cooling degree days 0 0  
Moisture  
Dew Point -9 °C    
Average Humidity 52    
Maximum Humidity 74    
Minimum Humidity 30    
Precipitation  
Precipitation 0.00 mm - 6.35 mm (1965)
Month to date precipitation 0.00  
Year to date precipitation 0.00  
Sea Level Pressure  
Sea Level Pressure 1028 hPa    
Wind  
Wind Speed 5 km/h (SSE)    
Max Wind Speed 26 km/h    
Max Gust Speed 32 km/h    
Visibility 16 kilometers    
Events      
T = Trace of Precipitation, MM = Missing Value Source: NWS Daily Summary

Daily Weather History Graph

Daily Weather History Graph

Search for Another Location

Airport:

Trip Planner

Search our weather history database for the weather conditions in past years. The results will help you decide how hot, cold, wet, or windy it might be!

Date:

Astronomy

Jan. 06, 2014 Rise Set
Actual Time 7:18 AM PST 4:53 PM PST
Civil Twilight 6:49 AM PST 5:22 PM PST
Nautical Twilight 6:16 AM PST 5:56 PM PST
Astronomical Twilight 5:43 AM PST 6:28 PM PST
Moon 10:40 AM PST (1/6) 11:28 PM PST (1/6)
Length of Visible Light 10h 33m
Length of Day
9h 34m
Waxing Crescent, 36% of the Moon is Illuminated
Jan 6
Waxing Crescent
Jan 7
First Quarter
Jan 15
Full
Jan 23
Last Quarter
Jan 30
New

Hourly Weather History & Observations

Time (PST) Temp. Windchill Dew Point Humidity Pressure Visibility Wind Dir Wind Speed Gust Speed Precip Events Conditions
12:53 AM -7.2 °C -10.0 °C -11.7 °C 71% 1028.6 hPa 16.1 km South 5.6 km/h / 1.5 m/s - N/A   Clear
1:53 AM -7.2 °C -10.0 °C -11.7 °C 71% 1028.4 hPa 16.1 km South 5.6 km/h / 1.5 m/s - N/A   Clear
2:53 AM -7.8 °C -10.7 °C -12.2 °C 71% 1028.8 hPa 16.1 km South 5.6 km/h / 1.5 m/s - N/A   Clear
3:53 AM -8.3 °C -11.3 °C -12.2 °C 74% 1029.4 hPa 16.1 km South 5.6 km/h / 1.5 m/s - N/A   Clear
4:53 AM -8.3 °C - -12.8 °C 71% 1030.3 hPa 16.1 km Calm Calm - N/A   Clear
5:53 AM -8.9 °C -12.0 °C -12.8 °C 74% 1031.1 hPa 16.1 km SSW 5.6 km/h / 1.5 m/s - N/A   Clear
6:53 AM -8.3 °C - -12.2 °C 74% 1031.5 hPa 16.1 km Calm Calm - N/A   Clear
7:53 AM -8.3 °C - -12.2 °C 74% 1032.1 hPa 16.1 km Calm Calm - N/A   Clear
8:53 AM -6.1 °C - -11.1 °C 68% 1032.2 hPa 16.1 km Calm Calm - N/A   Clear
9:53 AM -0.6 °C -2.5 °C -8.9 °C 54% 1030.5 hPa 16.1 km South 5.6 km/h / 1.5 m/s - N/A   Clear
10:53 AM 4.4 °C 3.2 °C -8.3 °C 40% 1029.3 hPa 16.1 km East 5.6 km/h / 1.5 m/s - N/A   Clear
11:53 AM 6.1 °C 5.2 °C -8.9 °C 34% 1027.6 hPa 16.1 km NE 5.6 km/h / 1.5 m/s - N/A   Clear
12:53 PM 6.1 °C 4.2 °C -6.7 °C 40% 1026.9 hPa 16.1 km NNE 9.3 km/h / 2.6 m/s - N/A   Clear
1:53 PM 6.7 °C 5.8 °C -5.6 °C 42% 1025.8 hPa 16.1 km NNE 5.6 km/h / 1.5 m/s - N/A   Clear
2:53 PM 7.2 °C 5.1 °C -3.3 °C 48% 1025.1 hPa 16.1 km NNE 11.1 km/h / 3.1 m/s - N/A   Partly Cloudy
3:53 PM 6.7 °C 4.9 °C -3.9 °C 47% 1025.4 hPa 16.1 km NE 9.3 km/h / 2.6 m/s - N/A   Mostly Cloudy
4:53 PM 4.4 °C - -3.9 °C 55% 1025.4 hPa 16.1 km Calm Calm - N/A   Mostly Cloudy
5:53 PM 1.7 °C - -4.4 °C 64% 1026.5 hPa 16.1 km Calm Calm - N/A   Mostly Cloudy
6:53 PM 0.6 °C -1.1 °C -4.4 °C 70% 1027.2 hPa 16.1 km WNW 5.6 km/h / 1.5 m/s - N/A   Mostly Cloudy
7:53 PM 1.1 °C - -5.6 °C 61% 1026.7 hPa 16.1 km Calm Calm - N/A   Mostly Cloudy
8:53 PM 1.7 °C - -6.1 °C 57% 1027.2 hPa 16.1 km Calm Calm - N/A   Overcast
9:53 PM 6.1 °C 2.7 °C -10.0 °C 31% 1024.4 hPa 16.1 km SSW 18.5 km/h / 5.1 m/s - N/A   Partly Cloudy
10:53 PM 5.0 °C 2.8 °C -10.0 °C 33% 1022.7 hPa 16.1 km SSW 9.3 km/h / 2.6 m/s - N/A   Mostly Cloudy
11:53 PM 2.8 °C - -8.3 °C 44% 1022.9 hPa 16.1 km Calm Calm - N/A   Mostly Cloudy